Theta_e
343 343 343 343 344 344 344 344 345 345 344 343 343 342 341 338 337 338 338 335 334 335 337 338 337 336 336 335 334 334 334 335 334 335 336 337 338 340 341 342 343 344 344 345 344 342 341 342 342 343 344 344 344 344 344 344 343 341 341 341 343 343 343 343 341 339 339 340 338 338 338 339 340 340 340 340 341 341 341 342 343 343 343 343 343
343 343 343 343 344 344 344 344 344 345 344 343 343 342 341 339 337 338 338 337 336 336 337 337 337 336 336 335 334 333 334 334 334 336 338 340 341 343 343 343 344 344 345 345 343 342 342 342 343 344 345 344 344 345 344 344 344 343 341 341 343 343 343 343 341 340 340 340 339 337 337 339 340 339 340 340 341 341 341 341 342 343 343 343 343
343 343 343 343 344 344 344 344 344 345 344 343 343 342 341 340 338 337 337 337 337 337 338 338 338 338 337 337 336 336 335 336 337 339 341 342 343 344 344 344 344 344 345 344 343 343 343 343 344 344 346 346 345 345 344 343 343 343 343 342 343 343 343 342 341 341 340 339 340 340 339 340 341 339 339 340 340 341 341 341 341 341 342 342 342
343 343 343 343 343 344 344 344 345 345 344 343 343 342 341 340 338 337 337 337 337 337 337 339 340 340 340 339 339 339 339 340 341 341 342 342 343 343 344 344 344 345 345 345 344 343 342 343 344 344 345 347 345 344 344 344 344 344 344 343 343 344 344 343 342 342 339 339 342 342 340 340 343 341 340 340 339 340 340 340 341 341 342 342 341
344 344 344 343 344 343 343 344 345 344 344 343 342 342 342 340 339 338 337 337 337 337 337 338 340 342 342 342 341 341 342 342 342 342 341 341 342 342 342 342 343 344 345 345 345 344 342 342 342 342 344 345 344 343 344 345 344 345 345 344 344 345 345 344 344 342 340 340 342 342 342 343 344 342 341 340 339 339 339 339 340 341 341 341 339
343 344 344 343 343 343 343 344 345 345 344 344 342 342 342 340 339 338 338 337 337 338 338 339 340 341 342 342 341 341 341 341 340 340 340 340 341 341 341 341 342 343 344 344 345 345 343 342 342 341 342 343 342 342 345 346 345 345 345 346 346 346 345 345 345 344 342 343 342 342 343 342 342 341 341 341 339 338 338 339 340 340 340 340 339
343 343 343 343 343 343 343 344 345 345 345 344 343 342 342 341 339 339 338 338 337 338 340 341 341 341 340 339 339 339 339 338 338 338 339 340 340 340 340 341 342 342 343 344 345 345 344 343 342 342 342 342 341 342 346 347 346 346 345 346 348 346 346 346 346 345 345 344 343 342 342 341 341 340 340 341 340 339 339 339 339 339 339 339 339
343 343 343 343 343 343 343 343 344 344 345 345 343 342 342 341 340 339 339 338 338 339 341 342 341 340 339 337 336 337 337 337 338 338 338 338 339 339 339 340 341 342 342 343 344 344 343 342 342 343 343 342 341 343 347 347 346 346 345 345 347 347 347 346 346 346 345 344 343 342 342 341 341 340 340 339 340 341 340 338 339 339 339 340 340
343 343 342 343 343 343 343 342 343 344 345 345 344 343 342 341 340 340 340 339 339 339 340 342 340 339 338 337 337 338 339 339 340 340 339 338 338 339 339 339 340 341 341 342 343 343 343 343 342 343 343 342 341 343 347 348 347 346 345 345 346 347 347 347 346 346 346 345 344 343 342 342 342 342 341 340 340 341 342 341 340 340 341 340 340
343 343 343 343 343 343 343 342 343 344 345 344 345 344 342 341 341 340 341 340 340 340 340 341 340 338 337 338 339 340 341 342 342 342 342 341 340 339 340 340 339 339 340 341 342 343 344 344 343 343 342 342 342 344 347 348 348 347 346 344 345 345 347 347 347 346 346 345 344 344 343 343 342 343 343 343 343 342 344 343 341 341 343 343 342
342 342 342 343 343 343 342 342 342 344 345 345 346 345 344 342 341 341 341 341 341 341 341 342 340 337 337 339 341 343 343 344 344 344 344 344 343 340 340 341 340 339 339 340 341 342 343 344 343 343 343 342 342 344 347 348 348 348 347 344 344 344 344 346 347 347 347 346 345 344 344 344 343 343 343 343 344 344 344 343 342 341 343 345 344
341 341 342 342 342 342 342 342 342 343 345 346 346 346 345 343 343 342 342 341 342 342 342 342 340 337 337 340 343 344 344 345 345 345 345 345 344 342 340 341 341 339 339 339 340 341 342 343 343 343 343 342 343 343 345 347 348 349 347 344 343 343 343 345 346 347 347 347 347 346 345 345 344 343 343 343 343 343 344 345 345 344 345 347 346
341 341 341 341 341 342 342 342 342 343 344 345 346 346 346 345 344 343 343 342 342 342 342 342 341 338 338 340 343 344 345 346 346 346 346 346 346 344 342 340 341 340 339 339 339 340 341 343 344 343 343 343 343 343 344 346 349 350 348 343 342 343 342 343 345 346 347 347 348 347 347 347 346 345 344 344 344 343 344 347 347 345 347 348 346
340 340 340 340 340 340 341 341 341 341 343 345 345 346 346 345 345 345 343 342 341 341 341 341 341 340 340 341 342 344 345 346 346 347 347 347 347 347 345 342 340 340 340 339 340 341 341 342 343 343 342 342 342 343 343 345 347 348 348 344 344 344 344 343 344 345 345 346 347 347 348 348 347 346 346 345 346 346 347 348 348 347 348 348 347
340 340 340 340 340 340 340 340 340 341 342 344 345 345 346 346 345 344 343 342 341 340 339 340 341 341 341 342 343 344 345 346 347 347 347 348 348 348 348 345 341 339 340 340 340 341 341 342 342 342 343 342 342 342 343 344 344 345 347 346 346 346 345 344 343 343 344 345 345 346 347 349 347 346 347 347 347 347 347 348 348 348 349 348 348
341 340 340 340 339 339 340 339 340 341 342 343 344 344 345 346 345 344 343 343 342 340 339 339 340 340 341 342 343 344 345 346 347 347 347 348 347 348 348 347 345 342 342 342 341 341 341 342 343 342 342 343 342 342 342 343 343 344 346 347 347 347 347 346 344 344 343 343 344 344 346 347 347 346 348 347 347 347 347 347 347 348 348 349 349
342 341 340 339 340 339 339 339 340 341 341 342 343 343 344 345 345 344 344 343 343 342 340 339 339 339 340 341 343 344 344 345 346 346 347 347 347 348 348 348 348 347 346 345 344 342 342 343 344 344 343 343 343 342 342 342 342 343 344 346 347 347 347 347 346 345 345 344 344 344 345 346 346 346 347 347 346 346 346 346 347 346 347 348 350
343 342 341 339 340 339 339 340 339 340 341 341 341 342 343 343 344 345 344 344 343 342 342 341 339 338 338 340 341 342 344 345 345 345 346 347 347 347 348 348 348 348 348 347 347 345 345 344 344 344 343 343 342 342 342 343 343 343 344 345 346 346 346 347 347 347 347 346 345 344 345 346 347 347 348 347 346 347 347 347 348 347 346 348 349
344 344 342 340 340 340 339 340 340 340 341 341 341 342 342 343 343 344 344 344 344 344 344 342 340 339 338 338 339 340 343 345 345 346 346 347 347 347 347 347 347 347 347 348 348 348 347 346 345 344 343 342 342 342 343 343 343 343 344 344 344 344 345 345 347 348 347 346 346 345 344 344 345 346 347 347 347 346 347 347 348 348 348 348 348
346 345 344 342 341 341 340 340 340 341 341 341 342 342 342 343 343 344 344 345 346 345 345 343 342 340 338 337 338 339 342 345 346 346 346 346 346 346 346 346 346 346 347 347 348 348 347 347 345 345 344 343 342 342 343 343 343 343 343 343 343 343 343 343 344 345 345 345 345 345 345 344 344 345 346 347 347 347 347 347 347 348 348 349 349
347 347 345 343 342 341 341 341 340 341 341 341 342 342 342 343 343 343 344 345 346 346 346 344 343 340 337 337 338 338 341 345 345 345 346 345 345 345 345 345 345 345 346 347 347 347 347 346 346 345 345 345 344 343 343 344 344 344 343 343 342 343 343 343 342 343 343 343 343 343 344 343 343 344 345 347 349 349 348 348 348 347 348 349 348
347 347 346 345 343 342 341 341 341 341 341 341 342 342 342 342 342 343 344 344 345 346 347 346 344 341 338 337 337 337 340 343 344 344 345 345 344 344 344 344 345 345 346 347 347 347 346 345 345 344 345 346 345 345 345 346 346 346 346 344 343 343 344 343 343 342 342 342 342 343 343 343 343 343 343 346 351 351 350 350 350 348 348 349 349
347 347 347 347 346 344 342 342 342 341 341 341 342 342 342 342 342 342 343 343 344 345 346 347 345 342 339 337 337 338 340 342 344 344 345 345 344 344 344 345 345 345 346 346 346 346 345 344 344 344 344 345 346 346 347 348 348 348 347 346 344 344 344 344 344 343 342 342 342 343 343 342 342 342 342 344 348 349 349 350 349 347 347 350 349
346 346 347 346 346 346 344 343 342 342 341 341 341 342 341 342 343 343 343 343 343 345 346 347 346 343 340 339 339 339 340 342 343 343 344 344 344 344 345 346 346 346 346 345 344 344 344 344 344 344 344 345 346 348 348 349 349 348 347 345 345 345 344 344 343 343 343 343 343 342 342 342 342 343 343 343 344 346 347 347 348 347 346 349 350
345 345 346 346 346 347 345 344 344 343 344 344 343 344 344 344 343 343 343 343 343 344 346 347 346 344 343 342 341 340 341 342 342 342 342 343 343 343 344 345 345 345 345 344 344 344 344 345 345 345 346 347 348 349 350 350 350 349 347 346 346 346 345 344 343 343 344 344 343 343 342 343 344 343 343 343 343 343 344 346 348 348 347 347 349
346 346 346 347 347 347 346 345 344 344 345 345 344 345 346 346 346 345 344 343 342 343 346 347 347 346 346 347 345 343 342 342 342 342 341 341 342 342 342 343 343 344 343 344 344 345 345 345 346 347 348 349 349 350 350 351 351 350 349 347 346 346 346 346 346 346 345 345 344 344 343 343 344 344 343 343 343 342 343 345 346 348 347 347 348
347 347 347 347 347 348 348 347 346 346 345 345 345 344 344 345 346 347 347 347 345 344 345 346 347 347 348 348 348 346 344 343 343 342 342 341 342 342 342 342 343 343 343 344 345 345 346 346 346 348 349 349 350 350 350 351 351 351 351 348 347 348 349 350 350 349 349 348 346 345 345 344 344 344 344 344 344 343 344 346 347 347 348 348 349
348 348 347 348 348 348 348 348 348 347 346 346 346 345 345 344 344 345 346 347 348 348 348 347 347 348 349 349 349 348 347 344 343 343 342 341 342 342 342 342 343 343 343 344 346 346 346 347 347 348 348 349 349 350 350 351 351 351 351 350 349 350 350 349 349 349 349 349 348 346 345 345 345 345 346 347 346 346 347 348 348 349 349 349 350
348 348 348 348 348 348 349 348 348 346 345 345 345 345 345 345 345 345 343 343 345 346 349 350 349 348 348 349 349 349 348 345 343 342 342 342 341 342 342 342 342 343 344 345 346 348 348 348 348 348 348 349 349 350 350 351 351 351 352 352 352 352 351 349 349 347 346 347 348 347 346 346 347 347 347 347 347 348 349 350 350 350 350 350 351
349 348 349 349 349 349 348 348 348 347 346 345 345 345 345 345 345 345 345 344 343 344 345 348 350 350 349 349 349 349 349 347 343 341 341 341 341 341 342 342 342 343 344 346 347 348 349 349 349 349 349 350 350 350 350 350 351 351 351 351 351 352 352 351 351 349 347 347 348 348 348 348 349 349 348 348 348 349 349 349 350 350 351 351 351
348 347 348 348 348 348 348 348 349 348 348 347 346 345 345 344 344 345 346 346 345 344 342 343 346 349 350 351 350 349 350 348 344 341 341 341 341 342 342 343 343 344 345 346 348 348 349 349 350 350 350 350 350 350 350 350 350 350 351 350 350 351 351 351 351 350 348 348 348 348 348 349 350 350 350 350 350 350 350 350 351 351 351 351 351
346 346 346 346 346 347 347 348 348 348 348 348 347 346 345 344 344 345 346 347 347 347 345 343 342 345 349 353 353 352 351 349 346 342 341 342 341 341 343 343 344 344 345 347 348 349 350 350 350 350 350 350 350 349 349 349 349 349 350 350 350 350 350 351 351 350 350 349 349 348 348 349 349 349 350 350 351 351 351 351 351 350 350 351 351
344 345 345 345 346 346 347 347 347 347 348 348 348 347 347 346 345 345 346 347 348 349 348 347 345 344 347 349 351 351 350 349 347 343 342 344 343 342 343 344 344 345 345 346 347 349 350 350 350 350 349 348 348 348 348 348 348 348 349 349 349 349 349 350 350 350 350 350 350 349 349 349 348 347 347 348 349 350 351 351 350 350 350 350 349
344 345 345 345 345 346 346 346 347 347 347 347 348 348 348 348 347 346 346 347 347 348 349 349 349 347 347 348 347 347 348 348 349 347 346 346 345 344 345 345 345 347 347 346 347 348 350 350 350 349 349 348 348 347 346 347 348 348 348 349 349 349 349 349 349 349 349 350 350 350 350 349 349 348 347 347 347 349 350 351 351 351 350 349 348
344 343 344 344 345 345 345 345 346 345 345 346 346 346 347 347 348 347 347 347 347 348 349 350 350 349 350 349 347 347 349 350 351 350 350 349 349 349 348 347 347 348 349 348 348 348 349 349 349 348 348 348 347 346 346 346 346 346 347 347 348 348 348 348 348 348 348 348 349 350 351 351 350 350 349 348 348 348 349 350 351 351 350 348 348
343 342 343 343 344 344 344 344 345 345 345 345 345 346 346 347 348 348 347 347 347 348 349 350 350 350 351 350 347 347 350 352 352 352 353 352 352 352 351 350 349 348 349 348 348 348 348 349 349 348 348 347 347 346 346 345 345 345 345 345 346 346 346 346 346 346 346 347 347 349 350 351 351 350 350 349 349 349 348 350 350 349 348 349 349
341 341 341 341 341 341 342 344 345 345 345 345 345 345 345 346 347 347 348 347 347 347 348 349 350 351 351 350 348 348 350 351 351 351 352 351 350 350 350 349 349 348 348 348 348 348 348 348 349 348 348 347 347 346 346 345 345 345 345 345 345 345 345 345 345 345 346 346 346 347 348 349 349 349 349 349 349 348 348 349 349 348 348 349 349
338 338 338 337 337 337 339 340 342 343 343 344 344 344 345 346 346 347 347 347 347 347 347 347 348 350 350 349 348 349 350 349 349 349 349 348 348 347 347 347 347 347 347 348 348 348 348 349 350 349 349 348 348 347 347 346 345 345 345 345 345 345 346 346 346 346 346 346 346 346 346 347 347 347 348 348 349 349 348 349 348 348 348 348 348
333 332 332 333 334 335 337 338 339 340 341 342 343 342 343 344 345 346 346 346 345 346 346 346 346 347 347 347 347 348 348 348 348 348 348 347 347 347 347 348 348 349 348 349 350 350 351 351 351 351 351 350 350 349 348 347 347 346 346 346 346 347 347 347 347 347 347 347 346 346 346 346 346 346 346 347 348 348 347 347 347 348 347 347 347
327 326 329 333 335 336 337 337 337 338 339 340 341 341 341 342 342 343 343 343 343 343 344 344 344 344 345 345 344 345 346 347 348 348 348 347 347 348 348 349 349 349 348 348 349 349 349 349 348 348 348 348 349 349 349 349 348 347 347 347 347 348 348 348 347 347 347 347 347 347 347 347 346 346 346 347 347 348 347 347 347 346 347 347 347
324 323 326 332 336 336 336 336 336 337 337 338 339 339 339 339 339 340 340 339 339 340 340 341 341 342 342 342 342 343 343 344 345 346 346 346 347 347 348 348 348 348 347 347 347 347 347 347 346 346 346 346 347 348 349 349 348 348 348 348 348 348 348 348 348 348 348 348 348 348 348 347 346 345 344 345 347 348 348 348 347 346 347 347 347
326 323 321 324 327 328 328 329 330 331 333 336 337 338 338 337 336 336 336 336 336 336 336 337 337 337 337 338 338 339 340 341 343 343 344 344 344 345 345 346 346 346 346 346 347 347 347 347 347 346 346 346 347 347 348 348 348 348 348 348 349 349 349 349 348 348 348 348 348 348 348 348 348 347 345 346 346 346 348 349 348 347 347 347 347
328 325 321 319 319 318 318 320 322 324 327 330 333 334 334 333 329 327 329 331 331 330 330 331 332 332 332 333 333 333 335 336 338 339 339 340 340 341 343 344 344 345 345 345 346 346 346 346 346 346 346 346 346 346 345 345 347 347 347 347 348 348 348 348 347 347 347 347 347 347 347 347 348 348 347 346 345 346 348 350 349 348 347 347 347
327 325 322 320 320 320 319 318 319 321 322 323 323 323 324 323 321 320 322 325 324 323 324 326 326 324 325 327 330 330 330 329 330 333 336 338 339 340 341 341 342 343 344 344 344 344 344 343 343 343 343 343 343 343 343 343 344 344 344 344 345 345 345 346 345 344 344 344 344 344 345 345 346 346 347 346 345 346 348 349 350 349 348 347 348
323 320 317 316 319 321 322 323 324 324 324 324 323 323 324 323 323 324 325 326 324 322 322 323 322 320 319 319 321 322 322 321 320 321 325 329 332 334 334 336 339 340 340 340 340 339 339 339 339 339 339 339 340 340 341 341 341 341 340 341 341 341 342 342 342 342 341 341 342 342 343 343 344 344 345 345 345 345 347 348 349 349 348 348 347
318 315 313 312 314 316 319 320 321 322 324 325 325 326 327 327 327 327 327 328 327 326 324 323 323 323 321 318 316 315 314 314 314 314 317 320 324 326 327 331 335 335 334 334 335 334 334 335 335 336 337 337 336 337 338 338 338 338 338 338 338 339 339 339 339 339 339 339 339 340 340 341 341 341 342 343 343 344 344 345 346 346 347 347 346
315 314 314 314 314 314 315 315 314 314 316 318 320 322 324 325 326 326 326 326 326 327 327 327 326 325 323 320 319 317 314 312 311 312 315 318 319 319 318 321 326 329 328 328 328 328 329 330 331 332 333 333 332 332 333 333 334 335 335 336 336 336 336 337 337 336 336 337 337 338 338 338 338 338 339 340 341 341 341 341 342 342 342 342 343
316 316 316 317 316 316 317 316 315 312 311 312 314 316 318 319 321 322 323 324 324 325 326 327 326 324 323 322 323 321 319 316 312 311 313 316 319 321 320 320 323 326 326 325 325 325 325 326 327 328 329 330 329 329 329 330 331 331 332 332 332 332 332 332 331 328 327 328 331 333 334 334 333 333 334 336 337 337 337 337 337 337 336 336 339
318 318 319 320 320 319 319 319 318 317 315 314 314 314 315 315 317 319 320 320 321 322 323 323 323 323 323 323 323 323 322 320 318 314 312 313 316 319 321 322 323 324 324 323 322 320 319 319 320 321 322 323 324 324 324 325 325 325 325 326 326 326 324 323 320 316 313 314 318 321 323 324 325 326 328 330 331 331 332 332 332 332 331 331 333
320 322 323 324 324 323 321 320 319 319 319 319 318 316 315 314 314 315 316 315 316 318 320 321 322 323 323 323 324 323 322 322 322 320 316 312 312 313 314 316 316 317 317 316 314 312 311 310 311 311 311 312 312 313 312 312 312 312 311 312 313 312 311 310 309 308 307 307 310 315 319 322 325 327 328 328 328 328 330 332 332 331 329 327 327
324 325 326 326 326 326 325 323 322 321 321 321 321 320 319 317 316 315 314 313 313 314 316 319 321 322 323 323 322 323 322 322 322 321 318 315 313 313 312 312 312 312 312 311 311 310 310 310 309 308 308 308 307 307 306 306 306 305 305 305 305 304 305 305 304 305 308 312 317 322 325 327 329 330 330 330 330 331 332 333 334 333 332 329 328
Wind_Speed
18 19 17 15 14 13 12 11 11 13 13 13 14 14 15 15 15 17 18 19 20 21 20 19 20 20 20 19 19 19 20 20 18 17 15 15 14 13 12 11 10 9 9 8 7 6 6 5 5 5 3 2 2 2 1 1 2 3 3 3 2 3 4 6 4 1 1 2 2 2 1 1 2 3 3 3 3 3 4 4 4 4 5 5 6
19 21 19 18 17 15 14 13 13 15 15 15 15 15 17 17 16 17 19 20 20 19 19 19 18 18 19 19 18 18 18 18 16 15 14 14 13 12 10 10 10 9 8 8 7 6 6 5 5 4 3 3 3 2 1 1 1 2 3 3 2 3 5 5 3 1 2 2 2 2 1 1 1 2 2 2 2 2 2 2 2 3 4 4 4
21 21 21 20 19 17 16 15 15 16 16 16 15 15 17 18 18 17 18 19 19 18 18 17 16 16 16 17 17 17 16 16 15 14 13 13 12 11 10 10 9 9 8 7 6 6 6 6 6 4 2 2 2 1 1 1 2 2 2 3 2 3 4 4 2 2 2 1 2 2 1 1 1 2 2 2 2 1 1 1 1 3 4 4 4
22 21 22 22 20 19 18 18 17 17 17 17 17 17 18 19 20 19 18 18 19 18 17 16 15 15 15 15 15 15 15 15 15 14 13 13 12 11 10 10 9 9 8 7 6 6 6 6 5 4 2 2 2 1 1 1 2 3 2 2 2 2 3 3 3 3 1 1 2 2 2 1 1 2 3 3 2 3 4 3 2 3 4 4 5
24 23 23 24 22 21 20 20 19 17 18 18 18 18 18 19 20 20 19 18 18 18 18 17 16 15 16 16 16 15 15 15 15 15 14 13 13 12 11 10 10 10 9 8 7 6 6 6 5 3 2 2 1 1 2 1 2 3 3 1 1 1 1 2 3 2 1 2 2 1 1 1 2 3 5 4 3 4 5 4 3 3 4 3 5
26 26 25 25 24 22 22 22 21 19 18 18 19 18 17 18 20 20 19 19 19 18 18 17 16 16 16 17 17 17 16 16 16 15 15 14 13 12 11 10 10 10 8 7 7 6 5 5 4 4 3 2 2 2 2 2 2 3 3 2 1 0 1 2 2 2 2 2 2 1 1 1 2 2 3 3 3 4 3 3 3 3 3 4 5
26 26 27 26 25 24 24 24 23 20 18 18 19 19 18 18 19 20 20 20 19 19 18 18 17 17 17 17 17 17 17 16 15 15 14 13 12 11 11 10 10 9 8 7 7 6 5 5 4 4 3 3 3 3 3 3 3 3 3 3 2 1 1 1 0 1 1 2 2 1 1 1 2 1 2 3 3 3 2 2 3 2 2 3 4
27 27 28 28 28 26 25 26 25 21 19 18 19 19 19 18 19 19 19 20 20 19 19 18 18 18 18 17 16 16 15 14 13 13 12 12 12 11 10 10 10 9 8 8 7 6 6 5 5 4 4 3 3 4 3 3 4 3 3 3 2 1 1 1 0 0 1 1 2 2 1 1 1 1 1 2 3 3 2 2 2 2 2 2 3
30 30 30 30 30 28 26 26 26 23 20 18 18 20 20 19 20 20 19 19 20 19 19 18 18 19 19 18 17 15 13 12 11 11 11 11 11 11 10 10 9 9 9 8 7 7 6 5 5 5 4 4 4 4 4 3 4 4 4 4 3 2 1 1 1 1 1 1 1 2 1 1 1 2 1 1 2 2 3 2 2 1 2 2 3
32 32 33 32 31 29 27 27 27 25 22 19 18 19 21 21 21 21 20 20 19 19 18 18 18 19 20 18 17 15 13 12 11 10 10 10 10 10 10 10 10 10 9 8 8 7 7 6 6 6 5 5 5 5 4 3 4 4 4 5 4 3 2 1 1 1 1 1 1 2 2 2 2 2 1 1 2 3 3 3 3 2 3 3 4
33 32 33 34 32 30 29 28 29 27 24 22 21 20 21 22 22 22 21 20 19 19 19 18 18 19 20 19 17 15 14 13 12 11 10 10 11 11 11 11 11 10 10 9 8 8 8 7 7 7 7 6 5 5 5 4 5 5 4 5 5 4 3 3 3 2 2 1 1 2 2 2 2 1 1 1 2 2 2 2 2 2 3 3 4
34 34 34 34 33 32 32 31 30 29 26 24 22 21 21 23 23 23 22 21 20 20 20 19 19 19 20 19 17 16 15 13 12 11 10 10 11 11 12 12 11 11 10 10 9 9 9 8 8 7 7 7 6 6 6 5 5 5 5 5 5 5 5 5 5 4 3 2 2 3 3 2 3 2 2 1 1 1 1 1 1 2 3 3 5
34 35 35 35 35 34 34 32 31 30 28 26 24 22 22 22 23 24 23 23 22 21 20 20 20 20 20 19 18 17 15 14 12 11 10 10 10 11 12 12 12 11 11 11 10 10 10 9 8 8 8 7 7 7 7 7 6 6 6 6 6 6 6 7 7 6 5 5 4 4 3 3 3 3 3 2 3 3 2 2 3 4 3 4 6
34 36 36 36 37 35 34 33 31 30 29 27 26 24 23 23 23 24 24 23 23 22 21 21 21 20 20 19 18 17 16 14 13 11 11 10 10 10 11 12 13 12 12 11 10 11 11 10 9 9 9 8 8 8 8 8 8 7 6 6 6 6 7 8 9 8 7 7 6 6 5 4 5 5 4 3 3 4 3 3 4 5 4 4 5
34 36 37 37 37 36 35 33 31 30 30 29 27 26 24 23 23 24 24 24 23 22 22 21 21 21 20 20 19 18 17 15 13 11 11 11 10 10 11 11 13 13 12 11 11 11 11 10 10 10 10 9 9 9 9 9 9 8 8 7 7 8 8 9 9 9 9 9 9 9 7 6 7 7 6 5 4 4 4 4 4 5 4 4 4
34 35 37 38 37 36 36 33 31 30 30 31 29 27 25 24 24 24 24 24 23 22 22 22 21 21 21 21 20 19 17 16 14 13 12 11 10 10 10 10 11 12 12 11 11 11 11 11 11 11 11 11 10 10 10 10 10 9 9 9 9 9 9 9 9 9 9 10 10 10 9 9 9 9 8 8 7 6 6 6 5 4 4 4 4
34 36 36 37 37 37 36 34 32 32 31 31 30 27 25 24 24 24 25 25 24 22 22 21 22 21 21 21 21 20 19 17 17 15 13 12 11 10 10 10 10 10 11 11 11 11 11 11 12 12 12 12 12 11 11 11 10 10 11 11 10 10 10 10 10 9 9 10 10 11 11 10 11 10 9 9 9 8 7 7 6 5 4 3 3
34 34 35 36 36 36 36 34 33 32 31 30 28 26 25 24 23 24 25 25 25 24 22 21 21 21 22 22 22 21 19 19 18 17 15 14 13 12 12 11 10 10 11 11 11 11 11 12 12 13 13 14 13 12 11 11 11 11 12 12 12 11 11 10 10 10 9 10 10 11 11 11 11 11 10 10 10 9 8 7 7 5 5 4 4
34 33 33 35 36 36 35 35 34 33 31 29 27 27 27 26 24 24 24 24 24 24 24 22 21 21 22 22 22 21 20 19 19 18 17 16 15 14 14 13 12 12 12 12 11 12 12 12 13 14 14 14 14 13 12 12 11 12 12 12 12 12 12 11 11 11 10 10 10 11 11 12 12 12 12 12 11 11 10 9 8 7 6 6 5
33 34 34 35 35 36 35 35 34 34 32 30 29 30 29 27 26 25 24 24 24 25 25 23 21 21 22 22 22 21 20 20 20 19 18 17 17 16 15 14 13 13 13 13 13 13 13 14 14 14 14 14 14 14 13 12 12 13 13 13 13 13 13 12 12 12 12 11 11 11 11 12 12 12 12 12 12 12 11 11 11 10 8 8 7
29 31 33 34 34 35 34 34 34 33 32 31 31 31 30 29 28 26 26 25 25 25 25 24 23 22 22 22 22 22 21 21 20 19 19 18 18 17 16 15 14 14 14 14 14 14 14 15 15 15 15 15 15 15 14 13 13 13 13 13 13 13 13 13 13 13 13 12 12 12 12 12 12 13 13 12 11 11 11 11 12 12 11 10 8
27 28 30 31 32 33 34 34 34 34 33 32 32 31 31 31 30 28 27 26 25 25 25 25 24 23 22 22 22 22 22 22 21 20 19 18 18 18 16 15 14 14 14 15 15 15 15 15 16 16 16 16 16 15 15 14 14 14 13 13 13 13 13 14 14 13 13 13 13 13 13 13 13 14 13 12 11 10 10 10 11 12 11 11 9
25 27 28 28 29 30 32 33 33 33 32 32 32 32 31 32 31 31 29 27 25 25 25 25 25 24 23 23 23 23 22 22 21 21 20 19 18 17 16 16 15 15 15 15 15 15 15 15 15 16 16 16 16 15 15 15 14 14 13 13 13 13 14 14 14 14 13 13 14 14 14 14 14 15 14 13 13 12 11 10 10 11 11 10 10
22 23 25 26 26 27 29 31 32 32 32 32 33 33 32 33 33 33 31 29 27 26 25 24 25 25 24 24 24 23 23 22 22 21 20 19 18 17 16 16 16 16 16 16 15 15 15 15 15 15 15 15 14 14 14 15 15 15 14 14 14 14 14 14 14 13 13 14 14 15 15 14 14 15 15 15 14 14 13 12 11 11 11 10 10
21 20 21 23 25 26 27 28 30 31 31 32 33 33 33 34 35 35 34 31 28 27 25 24 25 26 25 25 25 24 23 22 22 21 20 18 18 17 17 17 17 16 16 15 15 15 15 15 15 14 14 14 13 13 14 15 15 15 15 14 14 14 14 14 14 13 13 14 15 15 16 15 15 15 15 15 15 15 14 14 13 12 12 12 11
18 19 20 22 24 25 26 26 28 29 31 32 32 33 33 34 34 34 35 33 30 27 26 25 26 26 26 26 25 25 24 23 22 21 20 19 18 18 18 18 17 17 16 15 15 15 15 15 14 14 14 14 13 14 15 15 15 16 15 15 15 15 14 14 14 13 13 14 15 15 16 16 16 16 16 15 15 15 15 15 14 13 13 13 12
13 16 19 21 22 24 24 26 27 29 31 32 32 32 32 33 33 33 33 32 31 30 28 26 26 27 27 26 25 24 24 23 22 21 21 20 19 19 19 18 18 17 16 16 16 16 15 15 15 15 15 15 15 15 15 16 16 16 16 16 16 15 14 14 14 14 14 15 15 15 16 16 17 17 16 16 16 15 15 15 15 14 14 14 13
9 11 13 16 19 21 23 25 27 29 30 31 31 31 32 33 33 33 32 31 31 31 30 29 28 28 27 26 25 24 23 23 23 22 22 22 21 20 20 19 19 18 17 17 16 16 15 15 15 15 15 15 15 15 16 16 16 16 16 16 16 16 15 15 15 15 15 15 16 16 16 16 17 17 16 16 16 15 15 15 15 15 15 15 13
6 7 9 12 15 17 19 21 23 26 28 29 30 30 31 32 33 34 33 32 33 33 33 32 31 30 29 27 25 24 23 23 23 24 24 24 23 21 20 20 19 18 18 17 17 16 16 15 15 15 15 15 15 16 15 15 15 16 16 16 16 16 16 15 15 15 15 14 15 16 16 16 16 17 17 17 16 16 16 16 16 15 15 15 14
3 4 6 8 10 11 13 16 19 22 25 27 29 30 31 32 34 34 33 34 34 34 34 34 32 31 30 28 27 25 23 23 24 24 24 23 23 21 20 20 19 19 19 18 18 18 17 16 15 15 15 15 15 15 15 14 15 16 16 16 15 16 15 14 14 15 14 14 15 16 16 16 16 16 17 18 18 17 18 17 17 16 15 15 15
4 2 2 5 7 8 9 12 15 19 21 24 26 28 30 32 33 35 35 35 35 35 35 35 34 32 30 29 28 26 24 23 24 24 23 23 23 22 21 20 19 19 20 19 19 19 18 17 16 15 15 15 16 15 15 15 16 15 15 15 15 15 14 13 14 14 14 14 15 15 16 17 17 17 17 18 18 18 18 18 17 16 16 16 15
6 5 3 1 3 5 6 8 11 14 17 19 22 24 26 29 32 35 35 34 34 35 37 37 37 34 30 28 27 26 24 23 23 24 23 23 23 22 20 20 19 20 20 20 20 20 19 18 17 16 15 15 16 16 15 16 16 15 14 14 15 15 15 14 14 15 15 15 15 15 16 17 18 18 18 19 19 19 18 19 18 18 18 18 17
7 7 6 4 3 2 3 4 6 9 12 15 17 20 22 24 28 32 34 34 33 34 36 38 39 38 34 29 26 24 23 22 23 24 23 23 23 22 21 20 20 20 21 22 22 21 20 19 17 16 15 15 16 16 15 16 15 15 15 16 16 16 16 16 16 16 16 16 16 16 17 18 18 18 18 19 20 20 19 19 18 18 18 18 17
9 8 8 7 5 4 3 4 5 6 9 11 14 16 18 20 24 28 31 33 33 33 34 36 37 38 36 31 27 25 24 24 23 23 23 22 22 22 22 22 22 21 21 22 23 22 22 20 18 17 16 16 17 17 17 17 17 17 17 18 18 18 18 17 17 17 17 17 17 17 18 18 18 18 18 18 19 20 20 19 19 18 18 18 16
11 10 10 9 8 6 5 4 4 4 5 8 11 13 16 18 21 24 28 30 31 31 33 34 35 36 36 32 28 26 26 26 25 23 23 22 22 22 22 22 22 22 22 22 22 22 23 22 20 19 18 18 18 18 18 18 19 19 19 19 19 19 20 19 19 19 19 19 20 19 19 19 18 18 18 18 18 20 20 20 19 18 18 17 17
13 12 12 10 8 7 6 5 5 5 6 7 8 10 12 15 17 20 24 27 29 30 30 31 33 36 36 34 31 27 24 24 23 21 21 21 21 22 22 21 20 21 21 22 21 21 22 22 21 20 20 20 19 19 19 19 20 20 20 20 20 20 20 20 21 21 20 21 21 21 21 21 20 20 19 18 19 19 19 19 19 19 17 17 17
16 15 15 14 13 10 7 5 5 5 6 9 10 8 9 12 15 19 22 25 28 30 29 28 28 29 30 31 30 27 24 23 22 20 21 20 19 19 19 19 18 18 19 21 21 20 20 19 19 19 19 19 20 20 20 21 21 22 22 21 21 21 21 22 22 22 22 22 22 22 23 23 22 21 21 20 20 20 20 20 20 19 18 17 17
16 16 15 15 15 15 13 11 8 7 7 7 8 7 6 8 11 16 20 23 26 27 25 23 22 22 23 24 23 22 21 20 18 17 18 18 17 17 16 16 16 16 17 18 18 18 17 16 17 18 18 19 20 21 22 23 23 23 23 23 23 22 22 22 23 23 24 23 23 23 24 24 24 23 22 21 21 22 21 21 21 19 18 18 17
16 15 14 14 14 13 14 15 15 15 14 12 10 6 2 5 7 11 14 15 17 19 18 18 18 18 17 16 13 13 14 14 14 14 15 15 16 17 17 17 16 14 14 15 16 15 15 16 17 18 19 20 21 23 24 24 24 24 24 24 23 23 23 23 24 24 25 25 26 26 25 25 25 25 23 22 24 25 23 20 21 21 20 18 17
19 18 16 15 15 16 18 19 20 20 18 15 13 13 13 13 11 11 11 9 9 10 11 12 13 14 15 14 11 9 10 10 10 11 13 13 14 15 15 16 15 13 11 12 13 14 15 16 18 19 20 21 22 23 23 24 24 24 24 25 24 24 24 25 25 26 27 27 27 28 27 27 27 27 26 25 25 25 24 22 23 24 22 19 18
20 20 19 19 20 21 21 21 21 20 20 18 18 21 25 25 23 22 21 18 17 16 15 15 14 13 12 10 7 5 6 8 8 9 10 11 12 13 13 13 14 13 12 12 14 15 16 17 19 20 21 22 22 22 23 23 22 23 23 24 24 24 25 25 25 25 27 27 28 29 29 29 29 29 30 28 26 24 24 24 25 26 24 22 20
18 19 21 22 23 23 22 21 20 18 18 17 18 24 28 29 29 29 26 25 24 23 22 23 23 20 18 16 13 9 6 5 6 7 9 9 8 8 9 9 10 11 11 13 14 15 15 16 17 18 18 20 21 22 23 23 22 21 22 22 22 23 23 23 24 25 26 28 29 30 30 31 31 31 32 31 27 24 24 25 26 26 26 25 22
17 18 20 22 24 25 25 24 23 22 21 19 19 23 26 28 29 27 24 24 24 24 25 27 27 26 25 24 21 19 16 13 11 8 6 5 4 3 3 4 6 7 9 10 12 12 13 14 14 15 16 17 18 19 18 18 18 19 19 19 19 20 20 21 22 23 24 25 26 27 28 29 29 31 32 32 29 27 27 27 27 27 27 25 23
17 18 19 21 23 24 24 24 24 24 24 24 25 26 26 28 28 26 24 23 22 22 24 25 25 26 26 24 23 23 21 19 16 14 12 11 9 7 5 4 3 3 3 5 7 7 8 8 9 10 10 10 12 13 11 9 10 11 10 10 11 12 13 14 16 17 18 18 19 20 21 21 23 24 27 29 30 30 29 28 27 27 27 26 24
18 19 20 21 22 22 22 22 21 21 21 22 23 24 25 26 25 23 23 24 23 24 25 24 24 25 25 23 21 19 18 17 16 15 14 14 14 12 10 9 8 6 4 3 2 2 1 1 1 2 2 3 5 7 5 4 4 4 4 6 7 8 9 10 11 12 13 13 13 14 14 15 17 18 21 23 25 25 26 28 29 28 27 27 24
19 21 21 22 22 21 20 20 19 17 17 18 19 20 21 21 21 20 20 21 21 21 22 22 23 24 24 24 23 21 18 16 15 14 14 14 13 13 12 11 10 9 9 8 8 8 7 6 5 3 2 2 2 1 1 1 1 3 4 5 5 6 7 7 8 8 8 8 8 8 8 10 11 13 15 18 20 21 22 24 27 27 27 26 23
21 22 22 22 22 21 20 20 20 18 17 16 17 18 18 17 17 17 17 17 18 18 18 19 20 20 20 21 21 21 20 18 16 14 13 12 12 11 11 11 9 9 9 9 9 9 9 8 7 5 3 3 3 3 2 1 1 2 3 4 4 5 5 6 7 7 7 7 8 8 8 8 8 8 9 11 13 16 17 20 22 23 22 22 21
22 21 21 21 21 21 21 21 22 20 19 18 17 17 17 16 16 16 15 15 15 16 15 15 16 16 17 17 18 18 18 18 17 16 13 12 11 10 10 9 8 6 6 7 8 8 7 7 6 5 4 4 4 3 2 2 2 2 3 4 4 4 5 5 6 6 6 7 6 7 7 8 8 8 8 8 8 10 11 14 15 15 13 14 16
21 20 19 19 19 19 19 20 20 19 18 18 18 17 16 16 16 15 14 14 14 14 14 13 13 14 14 14 15 15 15 15 16 16 14 13 11 10 9 8 8 7 6 6 6 6 5 5 4 4 4 4 4 5 5 5 5 5 5 6 6 7 7 6 6 6 6 6 6 6 6 6 6 7 9 9 9 8 7 6 6 5 3 2 6
18 17 16 16 16 16 16 16 17 17 16 16 16 16 15 15 14 13 13 12 13 13 12 12 12 12 12 12 12 12 12 13 14 15 14 13 11 10 10 9 8 8 7 7 7 6 6 6 5 5 5 4 5 6 6 7 7 7 7 7 7 7 7 7 7 6 6 6 6 6 6 6 5 6 8 9 9 10 9 8 6 6 6 7 6
14 12 12 12 12 13 13 13 13 13 13 14 14 14 14 14 13 13 13 13 12 12 11 12 11 10 10 10 10 10 10 10 11 13 13 13 12 11 10 10 9 9 9 9 9 9 9 9 8 8 7 6 6 6 6 6 6 6 6 5 5 6 7 7 7 7 7 7 8 8 8 8 8 10 11 11 11 11 10 9 8 7 7 8 8
Wind_Direction
215 216 218 223 224 222 221 221 213 202 198 191 186 182 178 176 172 167 162 160 158 157 156 156 158 157 157 159 160 160 160 161 163 162 162 163 163 164 165 166 167 165 162 161 165 168 165 159 160 160 146 125 106 103 122 126 165 211 233 242 295 339 335 342 347 303 298 321 324 325 291 171 115 107 98 90 90 86 80 68 60 59 51 43 46
220 224 225 229 229 223 217 219 214 202 197 193 189 184 180 179 177 172 169 167 165 164 163 161 161 161 159 159 160 162 163 164 165 165 164 165 166 167 169 172 171 168 164 162 164 164 161 161 164 159 132 104 93 91 102 104 138 196 224 240 278 313 318 331 351 1 314 304 338 341 247 195 140 129 120 119 121 109 89 59 35 29 24 18 17
221 224 227 229 230 224 213 214 215 205 199 195 191 188 184 182 181 179 177 173 172 171 169 166 165 164 162 161 162 163 164 165 166 168 169 170 172 174 176 178 176 174 170 166 165 165 163 164 168 162 131 101 95 102 106 105 138 166 204 240 284 312 313 318 337 1 332 344 33 35 105 114 197 179 164 175 189 209 253 313 330 340 353 4 7
219 220 225 227 227 223 211 209 211 205 201 197 193 192 189 186 184 183 182 180 178 176 173 170 168 167 166 166 166 167 168 169 170 173 176 177 179 181 182 182 180 177 174 171 168 167 166 167 172 170 155 130 107 151 170 129 162 160 173 233 296 339 324 315 328 345 351 28 35 55 73 59 274 271 288 279 266 275 281 279 278 304 325 353 9
220 218 220 223 226 223 211 207 208 203 201 199 196 196 193 189 187 186 186 185 183 181 179 177 177 176 172 172 175 176 178 178 178 178 179 181 182 183 184 186 184 178 173 171 168 169 171 173 180 185 188 183 151 190 188 162 174 162 153 185 330 1 357 352 354 5 41 40 34 70 65 358 302 302 307 306 304 309 298 270 257 286 308 335 1
223 222 221 222 225 223 212 206 206 202 200 201 200 199 197 193 190 189 188 187 186 185 183 183 186 186 183 182 182 183 185 186 184 182 181 181 182 182 183 185 182 175 173 171 169 174 179 181 186 191 197 204 206 202 189 181 182 168 157 142 91 75 106 56 25 38 68 47 43 77 92 338 326 305 309 318 317 326 315 270 271 299 313 327 348
222 224 225 223 223 221 213 207 206 204 199 200 202 202 201 197 194 193 191 190 190 189 188 188 189 192 192 190 187 186 187 187 185 184 183 181 183 183 183 183 180 176 176 178 179 181 185 187 191 196 202 207 206 200 194 196 195 182 173 151 122 138 112 81 33 40 48 43 45 55 59 4 345 301 302 324 328 339 327 284 304 315 320 336 359
220 220 223 225 225 224 217 211 209 206 199 199 201 202 202 200 197 197 195 193 193 193 194 192 192 193 194 193 190 188 187 186 186 187 186 186 187 187 187 187 186 185 185 190 192 190 191 193 195 202 210 211 201 200 204 205 203 200 192 176 154 143 118 121 216 348 7 24 33 27 21 18 13 353 312 326 332 336 325 295 303 310 330 354 8
224 222 224 226 227 227 222 215 212 207 202 200 200 201 202 200 200 200 200 198 196 197 198 197 195 194 195 194 192 189 187 188 191 193 195 194 193 194 196 196 195 195 195 199 201 198 198 199 203 209 215 215 207 205 211 215 212 209 207 200 187 174 159 153 183 240 285 307 340 343 339 345 11 10 348 347 334 325 323 307 288 320 342 330 335
226 225 226 229 229 228 225 217 213 209 205 203 201 201 201 200 201 202 203 202 200 200 200 202 200 196 196 196 193 190 188 190 196 201 205 206 204 203 205 204 203 203 202 204 204 204 205 207 211 215 218 216 209 209 217 224 221 215 217 215 206 199 207 219 218 234 266 280 294 300 304 305 328 359 1 345 328 319 314 297 278 314 340 328 334
225 223 225 229 229 226 224 218 214 211 207 204 203 202 201 201 202 203 205 205 204 203 202 203 204 201 198 197 195 194 193 196 200 204 210 215 215 212 211 211 209 208 207 208 208 208 211 214 216 219 223 221 211 214 223 227 223 222 226 226 222 220 222 232 240 248 263 277 300 295 293 291 292 315 312 286 317 327 329 312 280 302 326 329 333
222 220 220 223 222 220 220 217 214 212 209 206 205 204 203 202 202 204 206 207 206 206 204 204 205 203 202 202 200 200 201 202 204 209 215 220 222 221 217 216 215 213 211 210 210 212 215 217 219 221 225 226 219 221 228 227 223 226 233 233 232 235 234 237 239 242 250 260 287 291 295 296 284 287 291 286 299 318 11 16 326 318 326 324 327
218 219 218 217 217 217 217 216 214 213 212 208 206 205 204 203 203 204 205 206 207 208 208 207 206 205 205 206 207 206 206 207 209 216 222 226 230 230 228 224 222 220 218 215 214 218 220 220 221 222 224 227 226 228 232 230 228 230 234 231 232 239 241 239 235 237 245 251 264 278 289 294 284 281 283 292 302 312 331 334 322 330 332 323 328
213 216 217 216 217 218 217 216 216 215 214 211 209 207 206 204 204 204 204 205 206 209 211 212 211 210 208 209 211 211 210 210 212 219 225 229 233 238 241 237 231 229 228 224 221 223 226 227 228 228 226 226 227 231 236 237 236 237 236 232 233 241 243 240 234 233 239 245 251 261 268 272 273 274 276 282 293 306 317 318 324 333 335 333 337
209 213 216 217 217 217 216 216 217 215 214 213 211 210 208 206 205 205 203 203 206 209 212 214 215 215 214 213 213 213 214 214 215 220 226 229 233 241 247 245 240 237 236 233 228 228 229 232 236 237 234 232 230 232 238 241 242 243 242 238 239 242 244 243 239 236 239 242 246 252 256 260 265 267 271 273 273 281 290 298 318 331 331 334 339
206 210 214 216 217 217 216 216 217 216 215 215 214 212 210 208 207 206 204 203 206 210 212 215 216 217 217 216 215 216 217 218 220 223 228 229 231 237 243 246 244 243 242 238 234 232 233 234 238 241 240 239 238 235 236 240 243 246 246 245 244 243 243 244 245 244 246 247 248 251 252 254 259 262 266 269 271 275 278 284 301 319 329 331 334
204 208 212 215 216 216 216 217 217 217 217 217 217 216 214 212 209 207 207 206 208 212 214 216 217 218 218 218 218 218 219 221 224 226 228 230 229 229 234 239 242 244 244 242 238 237 237 235 237 241 242 243 243 240 237 238 241 245 246 247 247 245 241 241 245 248 252 254 254 253 254 256 259 261 263 265 268 271 271 276 287 298 312 319 322
208 209 211 215 217 217 217 218 220 220 220 221 221 221 218 217 214 211 210 210 210 212 215 218 220 219 220 220 220 221 222 224 226 226 227 229 228 227 228 231 236 241 242 241 241 241 239 238 239 241 242 244 244 242 238 237 241 245 247 247 247 246 244 242 243 246 251 256 257 257 256 257 260 261 262 263 265 266 264 268 276 282 290 294 306
210 209 210 213 216 219 219 220 222 222 223 225 225 224 222 222 220 217 216 216 215 214 216 219 222 222 222 221 222 223 224 227 226 224 225 227 228 228 229 230 233 237 238 237 238 241 240 240 242 243 243 245 246 245 241 239 242 246 249 250 250 250 250 248 247 247 251 255 257 258 259 259 261 262 263 265 267 268 267 268 269 271 280 287 298
211 210 210 212 215 219 221 222 224 225 226 226 226 226 225 225 224 221 220 221 221 220 220 221 222 225 224 223 223 224 225 228 227 225 225 227 229 229 230 232 233 234 235 234 234 237 240 242 245 246 245 245 246 245 241 241 244 247 250 252 252 253 253 253 253 252 253 255 255 256 258 261 263 263 265 268 271 272 271 270 266 265 271 278 287
213 213 212 213 215 218 221 223 224 226 227 227 228 229 228 228 228 226 223 223 224 224 225 224 223 225 225 223 223 224 225 228 227 226 228 229 230 230 230 231 232 233 233 234 234 236 239 243 246 247 246 246 246 244 241 242 245 250 254 255 254 254 255 256 256 255 256 256 255 254 255 259 262 263 264 266 270 273 273 271 266 263 264 267 273
213 216 215 215 216 217 219 220 222 225 228 229 230 231 230 230 231 229 227 226 226 227 228 228 226 225 225 224 224 225 226 229 229 227 228 230 232 231 229 229 231 232 233 234 236 238 241 244 246 247 247 247 246 244 242 244 248 252 256 258 257 255 257 259 258 258 257 255 255 255 255 256 259 261 262 261 262 267 270 267 263 261 260 260 262
214 217 218 218 220 221 220 221 222 224 228 231 232 233 234 234 234 233 231 230 228 229 230 231 229 226 225 225 226 226 227 229 230 230 230 232 233 232 230 229 230 232 233 234 236 239 242 244 246 246 245 246 246 244 242 245 248 252 255 257 257 256 257 258 258 258 258 256 256 257 258 259 260 261 262 261 259 260 264 263 259 257 255 254 256
216 220 221 222 224 224 223 223 224 225 228 232 234 236 236 237 236 236 235 233 232 232 233 232 229 226 224 225 226 226 227 229 230 231 231 232 233 232 230 230 231 232 232 233 235 238 241 241 241 242 242 242 242 241 242 246 249 251 253 254 255 255 255 255 254 254 254 254 255 258 261 262 263 263 262 262 260 260 262 262 259 258 254 251 253
216 222 224 225 228 228 225 223 223 224 225 228 233 236 236 237 238 238 238 236 234 233 234 233 230 226 224 225 227 226 225 227 229 231 232 232 232 231 230 230 230 230 231 233 235 237 238 236 235 238 240 240 240 242 246 248 250 251 251 251 251 252 252 252 251 250 249 251 254 258 261 263 264 265 263 261 261 258 258 259 257 257 257 254 253
206 214 218 221 225 228 227 225 223 223 223 224 228 233 237 239 241 241 240 239 237 234 233 231 229 227 226 227 229 228 227 226 227 229 230 230 230 229 229 228 227 226 228 230 233 235 235 234 233 236 239 240 241 245 248 249 249 250 250 250 248 247 247 249 251 251 251 252 254 257 260 261 261 263 262 260 260 259 258 258 257 255 257 257 255
182 198 209 216 220 224 226 228 228 230 230 228 228 232 236 239 242 243 243 243 241 237 233 230 226 226 227 227 228 228 228 227 226 227 228 228 229 230 229 228 226 225 226 227 228 229 230 231 233 235 238 240 241 244 247 247 247 248 249 248 245 241 243 248 252 254 255 256 258 259 260 260 260 261 262 263 262 261 259 258 258 258 258 258 256
158 180 197 209 217 222 226 228 230 233 235 234 234 236 238 239 241 244 247 248 247 244 239 233 229 227 227 227 228 229 229 227 225 226 227 226 227 229 229 229 228 226 226 226 227 227 227 229 231 234 236 239 241 242 244 245 245 247 248 248 243 238 239 246 251 253 256 259 260 259 258 259 261 261 262 264 263 260 258 258 259 259 259 258 253
156 181 195 207 217 222 226 229 230 232 235 236 237 238 240 240 240 243 245 245 246 248 247 242 237 232 229 228 230 231 230 227 225 225 225 226 227 229 230 231 230 230 228 226 225 225 226 228 230 233 235 238 240 240 241 243 247 249 249 246 244 243 243 248 253 254 256 259 260 259 258 259 262 263 263 264 262 260 259 259 259 259 259 258 253
138 182 208 219 227 231 232 233 233 234 236 236 236 238 241 241 240 241 242 241 241 244 248 249 248 243 237 233 233 233 232 229 226 225 225 227 229 231 231 231 232 233 231 228 225 223 224 226 228 231 234 238 242 242 241 243 246 252 255 250 248 252 252 252 257 260 260 262 262 261 260 261 263 265 265 263 263 263 262 260 260 260 259 257 255
68 84 217 229 237 241 240 240 240 241 242 241 241 241 242 242 242 241 241 241 240 239 241 245 249 250 246 241 237 236 235 233 228 225 225 227 229 231 232 232 232 233 231 229 227 224 222 223 225 228 231 235 239 241 243 245 244 249 257 258 257 260 259 256 261 266 266 266 267 265 265 264 264 265 265 263 263 264 265 263 260 259 259 258 256
39 30 15 302 251 248 247 245 244 245 246 246 246 245 244 243 244 244 243 242 240 239 238 239 244 249 249 246 242 239 239 238 231 224 223 225 228 229 230 231 232 233 232 231 229 227 224 223 224 228 232 236 238 239 241 244 243 242 249 256 259 262 263 262 264 268 270 271 271 269 267 267 266 266 265 264 263 263 265 266 264 263 261 257 254
25 15 9 9 354 313 281 268 257 251 250 250 250 251 249 247 246 245 244 243 240 240 241 240 241 245 247 249 248 244 243 245 238 227 224 225 226 227 227 228 231 233 234 233 231 231 229 226 227 230 234 240 244 242 241 243 245 243 246 251 255 258 262 264 266 269 271 272 272 270 267 266 267 268 266 266 265 264 264 265 265 265 262 258 258
27 15 10 8 359 343 319 292 273 262 259 258 257 256 254 252 249 247 245 244 242 241 241 241 241 243 245 248 249 244 244 248 244 233 227 225 224 225 227 228 229 230 233 234 233 233 233 231 231 233 236 241 246 245 244 245 247 248 248 251 255 258 262 264 267 270 271 272 272 272 270 268 269 270 270 269 268 266 264 263 263 264 262 261 263
40 32 25 19 13 9 1 339 314 300 288 278 273 269 263 256 251 249 247 245 244 242 240 238 237 238 239 241 243 244 244 247 246 239 231 228 227 226 227 228 228 229 231 232 232 233 234 233 233 235 238 242 246 247 249 249 250 250 251 252 254 257 261 264 267 270 271 272 272 271 271 270 270 271 272 272 270 267 264 264 266 266 264 263 261
49 44 38 33 29 20 2 339 324 322 317 303 293 284 274 263 254 250 249 247 245 243 240 237 233 233 234 236 239 242 244 247 249 246 238 233 230 227 225 225 227 229 230 229 228 229 231 233 234 237 240 245 248 249 250 251 251 251 253 254 255 257 260 263 267 269 271 272 272 272 272 272 272 272 271 269 266 264 262 262 265 265 263 261 259
53 52 51 49 47 41 27 360 329 321 319 307 300 299 292 282 271 260 255 252 249 244 241 237 231 227 228 232 236 238 239 244 249 248 240 235 234 232 228 225 224 225 226 224 224 226 228 232 237 241 245 249 252 254 255 255 254 253 252 253 255 257 260 263 266 269 269 270 271 271 272 272 273 272 270 267 265 262 259 259 261 261 260 259 257
56 54 51 47 44 44 44 44 39 31 16 344 323 312 284 270 268 258 252 248 243 238 237 233 226 224 226 231 233 231 231 237 243 245 244 243 246 248 243 235 230 227 228 229 228 228 232 238 243 247 250 253 256 258 259 260 258 256 254 253 254 257 260 263 266 268 269 269 269 269 269 270 271 271 270 269 265 260 257 258 261 262 260 258 256
53 47 46 46 46 48 52 52 49 44 37 28 20 20 135 175 198 215 219 220 218 217 217 213 210 213 212 207 204 204 207 217 228 237 242 244 248 249 243 238 235 233 236 240 239 237 241 246 250 253 255 258 260 261 262 262 260 257 255 255 255 256 258 261 263 265 267 268 269 269 268 268 267 267 269 269 266 263 262 262 265 265 261 257 257
57 54 56 60 62 62 61 57 54 50 46 43 46 59 77 88 101 123 130 124 135 156 167 172 176 180 177 172 173 185 195 204 217 230 235 235 240 242 239 236 235 236 242 250 251 249 251 255 258 260 262 262 262 262 262 262 261 258 257 258 258 259 260 261 263 265 267 269 270 270 268 266 264 264 266 267 266 266 266 263 261 261 260 257 256
64 61 63 67 67 65 65 63 60 58 57 58 67 77 80 78 77 80 82 81 86 96 104 110 118 129 139 145 152 177 200 209 215 222 226 228 235 243 245 242 241 247 257 262 261 260 260 260 262 263 265 265 264 264 264 262 261 259 258 260 261 262 263 265 267 269 271 272 272 271 269 267 265 265 265 264 262 263 264 262 260 260 260 260 258
69 66 67 71 72 70 68 66 62 60 61 65 75 83 84 80 74 72 72 75 77 80 83 87 90 90 91 92 94 97 115 153 180 202 217 224 232 242 249 250 249 254 260 258 258 261 262 263 264 265 266 266 265 265 264 261 260 260 262 264 266 267 269 271 273 275 275 275 274 273 273 271 268 265 263 261 261 262 261 258 259 260 259 257 253
74 70 70 73 75 73 71 70 67 67 68 71 77 82 82 76 71 69 72 76 79 79 80 83 85 83 81 81 81 82 85 91 101 115 140 158 164 178 201 218 225 232 241 247 251 257 260 263 266 266 265 264 264 263 261 259 261 265 268 269 270 271 273 275 278 279 280 280 279 277 275 273 270 267 262 258 259 261 259 255 255 258 261 259 251
77 73 73 75 75 74 73 72 70 70 70 71 75 77 76 72 68 65 67 71 75 77 77 78 79 79 79 79 81 82 81 81 82 85 90 92 89 86 84 90 116 166 222 249 256 258 262 267 269 265 263 262 260 260 261 262 263 265 271 274 275 277 278 279 282 285 287 288 286 284 282 279 275 271 263 256 254 255 256 257 257 259 262 261 255
79 75 74 74 73 73 72 69 66 65 65 68 72 72 71 69 66 62 60 63 68 73 74 72 70 69 70 71 74 75 73 72 73 71 68 70 68 62 58 55 54 59 63 53 40 41 27 351 303 268 252 241 241 243 247 254 258 267 285 293 294 294 290 287 287 289 292 294 294 294 293 288 283 276 267 263 262 260 259 260 257 254 255 254 251
80 76 74 73 73 72 71 68 65 62 60 63 67 67 66 65 64 61 59 59 64 71 73 72 69 67 66 65 65 64 61 61 67 67 62 61 61 58 56 51 44 45 53 61 63 65 69 74 73 78 115 155 179 186 187 256 297 310 312 312 314 309 302 298 298 299 305 309 309 309 306 298 295 288 277 273 273 271 267 264 258 250 246 244 242
82 78 76 74 72 70 69 66 63 61 59 61 64 64 62 62 62 60 57 58 63 68 69 67 66 66 65 64 64 64 61 60 65 71 72 70 67 62 60 59 54 47 47 53 58 58 60 64 61 57 68 81 73 73 74 52 13 350 336 333 333 329 323 319 317 320 328 330 330 331 330 329 329 324 309 293 283 278 275 273 267 257 247 241 240
85 82 78 75 72 70 68 65 62 61 60 60 62 62 62 62 62 61 58 58 62 66 68 67 66 65 64 62 61 61 60 59 62 67 74 78 75 71 71 75 81 79 64 58 58 53 50 52 48 40 34 30 30 31 23 4 356 351 346 336 328 328 328 323 324 331 334 333 333 335 337 341 347 351 352 350 334 315 301 288 282 277 264 249 243
88 85 80 75 72 69 66 65 63 62 61 61 61 61 61 62 63 63 62 61 63 65 67 67 65 63 61 59 57 57 56 56 57 60 65 71 74 74 74 75 79 82 73 61 55 49 43 39 34 26 13 352 337 332 328 328 329 330 329 324 320 321 322 323 330 340 343 345 346 347 353 1 6 16 25 28 24 13 360 342 330 335 332 240 223
89 86 80 73 69 67 65 66 65 63 61 60 59 59 59 60 61 61 59 57 61 66 69 70 68 66 61 56 52 51 51 51 50 50 53 59 65 68 67 64 61 59 55 49 45 41 40 38 32 23 11 350 335 329 326 327 331 331 331 329 327 328 333 338 347 356 5 14 19 21 28 35 42 52 53 51 51 54 55 49 42 50 71 86 99
91 85 77 69 65 64 66 68 69 67 63 60 57 55 56 56 58 59 57 55 58 63 69 73 73 70 64 56 50 49 50 49 46 44 45 49 54 58 61 61 58 54 50 45 43 41 43 43 41 37 32 23 11 1 354 351 352 352 352 353 357 6 10 11 17 28 39 47 51 52 53 58 64 67 67 65 63 64 66 64 64 75 85 84 88